This is the latest recevied weather packets stored in our database for station/object K4AMF. If no packets are shown the sender has not sent any weather packets the latest 10 day(s).
| Time | Temp. | Humidity | Pressure | Rain* | Wind** | Luminosity | Snow |
|---|---|---|---|---|---|---|---|
| 1778102890 | 33.33° C | 46% | 1014.8 hPa | 0 mm | - | 415 W/m² | - |
| 1778102586 | 32.78° C | 46% | 1014.9 hPa | 0 mm | - | 361 W/m² | - |
| 1778102281 | 32.78° C | 46% | 1014.7 hPa | 0 mm | - | 318 W/m² | - |
| 1778101978 | 33.33° C | 46% | 1014.9 hPa | 0 mm | - | 395 W/m² | - |
| 1778101675 | 33.89° C | 46% | 1015 hPa | 0 mm | - | 425 W/m² | - |
| 1778101372 | 32.78° C | 45% | 1015 hPa | 0 mm | - | 474 W/m² | - |
| 1778101069 | 33.33° C | 44% | 1014.8 hPa | 0 mm | - | 492 W/m² | - |
| 1778100764 | 33.33° C | 44% | 1015.3 hPa | 0 mm | - | 430 W/m² | - |
| 1778100461 | 33.33° C | 44% | 1015.2 hPa | 0 mm | - | 397 W/m² | - |
| 1778100159 | 32.78° C | 45% | 1015.1 hPa | 0 mm | - | 337 W/m² | - |
| 1778099857 | 32.78° C | 45% | 1015.4 hPa | 0 mm | - | 386 W/m² | - |
| 1778099554 | 33.33° C | 44% | 1015.3 hPa | 0 mm | - | 380 W/m² | - |
| 1778099251 | 33.33° C | 46% | 1015.3 hPa | 0 mm | - | 482 W/m² | - |
| 1778098947 | 33.33° C | 45% | 1015.3 hPa | 0 mm | - | 547 W/m² | - |
| 1778098644 | 33.89° C | 45% | 1015.3 hPa | 0 mm | - | 530 W/m² | - |
| 1778098341 | 33.89° C | 44% | 1015.6 hPa | 0 mm | - | 499 W/m² | - |
| 1778098038 | 32.78° C | 45% | 1015.2 hPa | 0 mm | - | 447 W/m² | - |
| 1778097735 | 33.33° C | 44% | 1015.7 hPa | 0 mm | - | 477 W/m² | - |
| 1778097431 | 33.33° C | 45% | 1015.8 hPa | 0 mm | - | 559 W/m² | - |
| 1778097127 | 32.78° C | 44% | 1015.8 hPa | 0 mm | - | 625 W/m² | - |
| 1778096819 | 32.78° C | 42% | 1016 hPa | 0 mm | - | 507 W/m² | - |
| 1778096515 | 33.33° C | 45% | 1015.8 hPa | 0 mm | - | 528 W/m² | - |
| 1778096213 | 32.78° C | 45% | 1016 hPa | 0 mm | - | 561 W/m² | - |
| 1778095910 | 32.78° C | 44% | 1016 hPa | 0 mm | - | 602 W/m² | - |
| 1778095607 | 32.78° C | 45% | 1016 hPa | 0 mm | - | 666 W/m² | - |
* Rain latest hour (hover to see other rain measurements)
** Current wind speed in m/s (hover to see current wind gust speed)